owner,sensor,date,latitude,longitude,vertical_datum,wind_speed,wind_to_direction,wind_speed_of_gust,qcFlag 
TABS,ioos:station:wmo:42044:1,2015-07-01T00:00:00Z,26.1914,-97.0507,0.0,3.460823601,171.1911341,4.31,'11111222,11111222,11111222' 
TABS,ioos:station:wmo:42044:1,2015-07-01T00:30:00Z,26.1914,-97.0507,0.0,4.065956222,176.8985537,4.74,'11111222,11111222,11111222' 
TABS,ioos:station:wmo:42044:1,2015-07-01T01:00:00Z,26.1914,-97.0507,0.0,3.931030399,178.6883257,4.54,'11111222,11111222,11111222' 
TABS,ioos:station:wmo:42044:1,2015-07-01T01:30:00Z,26.1914,-97.0507,0.0,2.017176244,147.964794,2.67,'11111222,11111222,11111222' 
TABS,ioos:station:wmo:42044:1,2015-07-01T02:00:00Z,26.1914,-97.0507,0.0,3.277132893,119.2247718,4.06,'11111222,11111222,11111222' 
TABS,ioos:station:wmo:42044:1,2015-07-01T02:30:00Z,26.1914,-97.0507,0.0,3.990588929,118.106625,4.77,'11111222,11111222,11111222' 
TABS,ioos:station:wmo:42044:1,2015-07-01T03:00:00Z,26.1914,-97.0507,0.0,4.24348913,123.465722,5.37,'11111222,11111222,11111222' 
TABS,ioos:station:wmo:42044:1,2015-07-01T03:30:00Z,26.1914,-97.0507,0.0,4.692941508,118.0943873,5.68,'11111222,11111222,11111222' 
TABS,ioos:station:wmo:42044:1,2015-07-01T04:00:00Z,26.1914,-97.0507,0.0,6.051660929,131.2485954,7.34,'11111222,11111222,11111222' 
TABS,ioos:station:wmo:42044:1,2015-07-01T04:30:00Z,26.1914,-97.0507,0.0,6.395349873,111.7518703,7.98,'11111222,11111222,11111222' 
TABS,ioos:station:wmo:42044:1,2015-07-01T05:00:00Z,26.1914,-97.0507,0.0,6.514384084,120.0288722,8.81,'11111222,11111222,11111222' 
TABS,ioos:station:wmo:42044:1,2015-07-01T05:30:00Z,26.1914,-97.0507,0.0,6.268341088,121.2305945,7.45,'11111222,11111222,11111222' 
TABS,ioos:station:wmo:42044:1,2015-07-01T06:00:00Z,26.1914,-97.0507,0.0,6.269066916,129.1739873,7.53,'11111222,11111222,11111222' 
TABS,ioos:station:wmo:42044:1,2015-07-01T06:30:00Z,26.1914,-97.0507,0.0,5.638474971,112.7452983,6.85,'11111222,11111222,11111222' 
TABS,ioos:station:wmo:42044:1,2015-07-01T07:00:00Z,26.1914,-97.0507,0.0,5.431694027,114.8197075,6.66,'11111222,11111222,11111222' 
TABS,ioos:station:wmo:42044:1,2015-07-01T07:30:00Z,26.1914,-97.0507,0.0,5.863522832,115.7787915,7.19,'11111222,11111222,11111222' 
TABS,ioos:station:wmo:42044:1,2015-07-01T08:00:00Z,26.1914,-97.0507,0.0,7.00835216,117.2600902,8.54,'11111222,11111222,11111222' 
TABS,ioos:station:wmo:42044:1,2015-07-01T08:30:00Z,26.1914,-97.0507,0.0,7.142128534,134.4330506,8.3,'11111222,11111222,11111222' 
TABS,ioos:station:wmo:42044:1,2015-07-01T09:00:00Z,26.1914,-97.0507,0.0,5.685068161,129.2897359,6.89,'11111222,11111222,11111222' 
TABS,ioos:station:wmo:42044:1,2015-07-01T09:30:00Z,26.1914,-97.0507,0.0,5.568204378,133.0354162,6.78,'11111222,11111222,11111222' 
TABS,ioos:station:wmo:42044:1,2015-07-01T10:00:00Z,26.1914,-97.0507,0.0,4.944137943,133.607134,5.93,'11111222,11111222,11111222' 
TABS,ioos:station:wmo:42044:1,2015-07-01T10:30:00Z,26.1914,-97.0507,0.0,4.402465218,120.5846692,5.48,'11111222,11111222,11111222' 
TABS,ioos:station:wmo:42044:1,2015-07-01T11:00:00Z,26.1914,-97.0507,0.0,5.063200569,120.1101681,6.09,'11111222,11111222,11111222' 
TABS,ioos:station:wmo:42044:1,2015-07-01T11:30:00Z,26.1914,-97.0507,0.0,5.702324088,123.7740122,6.68,'11111222,11111222,11111222' 
TABS,ioos:station:wmo:42044:1,2015-07-01T12:00:00Z,26.1914,-97.0507,0.0,5.960285228,123.5037796,7.24,'11111222,11111222,11111222' 
TABS,ioos:station:wmo:42044:1,2015-07-01T12:30:00Z,26.1914,-97.0507,0.0,5.844903763,140.345345,8.05,'11111222,11111222,11111222' 
TABS,ioos:station:wmo:42044:1,2015-07-01T13:00:00Z,26.1914,-97.0507,0.0,10.91032997,204.4745313,14.47,'11111222,11111222,11111222' 
TABS,ioos:station:wmo:42044:1,2015-07-01T13:30:00Z,26.1914,-97.0507,0.0,10.4024276,208.2897088,14.24,'11111222,11111222,11111222' 
TABS,ioos:station:wmo:42044:1,2015-07-01T14:00:00Z,26.1914,-97.0507,0.0,12.12534536,178.2988598,17.2,'11111222,11111222,11111222' 
TABS,ioos:station:wmo:42044:1,2015-07-01T14:30:00Z,26.1914,-97.0507,0.0,11.94149907,169.7254285,14.35,'11111222,11111222,11111222' 
TABS,ioos:station:wmo:42044:1,2015-07-01T15:00:00Z,26.1914,-97.0507,0.0,12.54569647,191.5877702,15.31,'11111222,11111222,11111222' 
TABS,ioos:station:wmo:42044:1,2015-07-01T15:30:00Z,26.1914,-97.0507,0.0,11.37007036,179.7986435,14.06,'11111222,11111222,11111222' 
TABS,ioos:station:wmo:42044:1,2015-07-01T16:00:00Z,26.1914,-97.0507,0.0,11.16684378,186.2723942,13.54,'11111222,11111222,11111222' 
TABS,ioos:station:wmo:42044:1,2015-07-01T16:30:00Z,26.1914,-97.0507,0.0,10.45210983,178.8489697,13.58,'11111222,11111222,11111222' 
TABS,ioos:station:wmo:42044:1,2015-07-01T17:00:00Z,26.1914,-97.0507,0.0,7.684224099,189.8915457,9.29,'11111222,11111222,11111222' 
TABS,ioos:station:wmo:42044:1,2015-07-01T17:30:00Z,26.1914,-97.0507,0.0,5.990008347,197.5881462,7.49,'11111222,11111222,11111222' 
TABS,ioos:station:wmo:42044:1,2015-07-01T18:00:00Z,26.1914,-97.0507,0.0,3.314724725,207.879444,4.23,'11111222,11111222,11111222' 
TABS,ioos:station:wmo:42044:1,2015-07-01T18:30:00Z,26.1914,-97.0507,0.0,2.822941728,171.2386376,3.55,'11111222,11111222,11111222' 
TABS,ioos:station:wmo:42044:1,2015-07-01T19:00:00Z,26.1914,-97.0507,0.0,3.069364755,189.1863151,3.62,'11111222,11111222,11111222' 
TABS,ioos:station:wmo:42044:1,2015-07-01T19:30:00Z,26.1914,-97.0507,0.0,2.546566316,189.7214304,3.15,'11111222,11111222,11111222' 
TABS,ioos:station:wmo:42044:1,2015-07-01T20:00:00Z,26.1914,-97.0507,0.0,2.704163457,197.4300325,3.71,'11111222,11111222,11111222' 
TABS,ioos:station:wmo:42044:1,2015-07-01T20:30:00Z,26.1914,-97.0507,0.0,1.938788281,197.4070828,2.6,'11111222,11111222,11111222' 
TABS,ioos:station:wmo:42044:1,2015-07-01T21:00:00Z,26.1914,-97.0507,0.0,0.776208735,111.9388501,1.71,'11111222,11111222,11111222' 
TABS,ioos:station:wmo:42044:1,2015-07-01T21:30:00Z,26.1914,-97.0507,0.0,2.330085835,179.5084144,3.49,'11111222,11111222,11111222' 
TABS,ioos:station:wmo:42044:1,2015-07-01T22:00:00Z,26.1914,-97.0507,0.0,3.457658167,183.8142764,3.98,'11111222,11111222,11111222' 
TABS,ioos:station:wmo:42044:1,2015-07-01T22:30:00Z,26.1914,-97.0507,0.0,3.504625515,177.056171,4.29,'11111222,11111222,11111222' 
TABS,ioos:station:wmo:42044:1,2015-07-01T23:00:00Z,26.1914,-97.0507,0.0,3.757086637,200.8953368,4.33,'11111222,11111222,11111222' 
TABS,ioos:station:wmo:42044:1,2015-07-01T23:30:00Z,26.1914,-97.0507,0.0,2.764217792,185.813914,3.52,'11111222,11111222,11111222' 
TABS,ioos:station:wmo:42044:1,2015-07-02T00:00:00Z,26.1914,-97.0507,0.0,2.033937069,169.5190168,2.47,'11111222,11111222,11111222' 
TABS,ioos:station:wmo:42044:1,2015-07-02T00:30:00Z,26.1914,-97.0507,0.0,2.764706133,151.9521703,3.49,'11111222,11111222,11111222' 
TABS,ioos:station:wmo:42044:1,2015-07-02T01:00:00Z,26.1914,-97.0507,0.0,2.383044272,135.5103525,2.96,'11111222,11111222,11111222' 
TABS,ioos:station:wmo:42044:1,2015-07-02T01:30:00Z,26.1914,-97.0507,0.0,1.700735135,125.185552,2.29,'11111222,11111222,11111222' 
TABS,ioos:station:wmo:42044:1,2015-07-02T02:00:00Z,26.1914,-97.0507,0.0,2.449510155,101.5396918,3.05,'11111222,11111222,11111222' 
TABS,ioos:station:wmo:42044:1,2015-07-02T02:30:00Z,26.1914,-97.0507,0.0,3.208628991,114.4886536,3.84,'11111222,11111222,11111222' 
TABS,ioos:station:wmo:42044:1,2015-07-02T03:00:00Z,26.1914,-97.0507,0.0,3.121602153,116.2370718,3.8,'11111222,11111222,11111222' 
TABS,ioos:station:wmo:42044:1,2015-07-02T03:30:00Z,26.1914,-97.0507,0.0,3.006409819,111.8725584,3.57,'11111222,11111222,11111222' 
TABS,ioos:station:wmo:42044:1,2015-07-02T04:00:00Z,26.1914,-97.0507,0.0,3.026879581,103.7611739,3.5,'11111222,11111222,11111222' 
TABS,ioos:station:wmo:42044:1,2015-07-02T04:30:00Z,26.1914,-97.0507,0.0,2.888615585,104.2290595,3.63,'11111222,11111222,11111222' 
TABS,ioos:station:wmo:42044:1,2015-07-02T05:00:00Z,26.1914,-97.0507,0.0,3.643967618,92.67437344,4.21,'11111222,11111222,11111222' 
TABS,ioos:station:wmo:42044:1,2015-07-02T05:30:00Z,26.1914,-97.0507,0.0,2.811138559,91.63117318,3.29,'11111222,11111222,11111222' 
TABS,ioos:station:wmo:42044:1,2015-07-02T06:00:00Z,26.1914,-97.0507,0.0,2.693139432,87.23279715,3.35,'11111222,11111222,11111222' 
TABS,ioos:station:wmo:42044:1,2015-07-02T06:30:00Z,26.1914,-97.0507,0.0,2.572353008,92.45126782,3.02,'11111222,11111222,11111222' 
TABS,ioos:station:wmo:42044:1,2015-07-02T07:00:00Z,26.1914,-97.0507,0.0,2.479455585,82.81725511,3.12,'11111222,11111222,11111222' 
TABS,ioos:station:wmo:42044:1,2015-07-02T07:30:00Z,26.1914,-97.0507,0.0,3.237977764,79.14081055,3.82,'11111222,11111222,11111222' 
TABS,ioos:station:wmo:42044:1,2015-07-02T08:00:00Z,26.1914,-97.0507,0.0,3.200015625,90.17946923,3.73,'11111222,11111222,11111222' 
TABS,ioos:station:wmo:42044:1,2015-07-02T08:30:00Z,26.1914,-97.0507,0.0,3.903754603,96.32438973,4.73,'11111222,11111222,11111222' 
TABS,ioos:station:wmo:42044:1,2015-07-02T09:00:00Z,26.1914,-97.0507,0.0,3.435724087,106.7475455,4.15,'11111222,11111222,11111222' 
TABS,ioos:station:wmo:42044:1,2015-07-02T09:30:00Z,26.1914,-97.0507,0.0,4.05907625,118.7122019,4.68,'11111222,11111222,11111222' 
TABS,ioos:station:wmo:42044:1,2015-07-02T10:00:00Z,26.1914,-97.0507,0.0,3.721558813,133.040393,4.24,'11111222,11111222,11111222' 
TABS,ioos:station:wmo:42044:1,2015-07-02T10:30:00Z,26.1914,-97.0507,0.0,3.672397037,143.9729213,4.12,'11111222,11111222,11111222' 
TABS,ioos:station:wmo:42044:1,2015-07-02T11:00:00Z,26.1914,-97.0507,0.0,3.126979373,133.186128,3.64,'11111222,11111222,11111222' 
TABS,ioos:station:wmo:42044:1,2015-07-02T11:30:00Z,26.1914,-97.0507,0.0,2.978607057,117.1675943,3.54,'11111222,11111222,11111222' 
TABS,ioos:station:wmo:42044:1,2015-07-02T12:00:00Z,26.1914,-97.0507,0.0,3.09769269,112.5917772,3.85,'11111222,11111222,11111222' 
TABS,ioos:station:wmo:42044:1,2015-07-02T12:30:00Z,26.1914,-97.0507,0.0,3.55578402,124.2267027,4.23,'11111222,11111222,11111222' 
TABS,ioos:station:wmo:42044:1,2015-07-02T13:00:00Z,26.1914,-97.0507,0.0,3.88020618,127.4608882,4.63,'11111222,11111222,11111222' 
TABS,ioos:station:wmo:42044:1,2015-07-02T13:30:00Z,26.1914,-97.0507,0.0,3.876209489,120.203588,4.51,'11111222,11111222,11111222' 
TABS,ioos:station:wmo:42044:1,2015-07-02T14:00:00Z,26.1914,-97.0507,0.0,3.680570608,116.635028,4.28,'11111222,11111222,11111222' 
TABS,ioos:station:wmo:42044:1,2015-07-02T14:30:00Z,26.1914,-97.0507,0.0,3.667710457,112.439983,4.34,'11111222,11111222,11111222' 
TABS,ioos:station:wmo:42044:1,2015-07-02T15:00:00Z,26.1914,-97.0507,0.0,3.303846243,112.6068929,3.93,'11111222,11111222,11111222' 
TABS,ioos:station:wmo:42044:1,2015-07-02T15:30:00Z,26.1914,-97.0507,0.0,3.513360215,111.8926287,4.08,'11111222,11111222,11111222' 
TABS,ioos:station:wmo:42044:1,2015-07-02T16:00:00Z,26.1914,-97.0507,0.0,3.724620786,125.8241338,4.31,'11111222,11111222,11111222' 
TABS,ioos:station:wmo:42044:1,2015-07-02T16:30:00Z,26.1914,-97.0507,0.0,3.795853,121.9737295,4.58,'11111222,11111222,11111222' 
TABS,ioos:station:wmo:42044:1,2015-07-02T17:00:00Z,26.1914,-97.0507,0.0,3.507962372,136.1553134,4.2,'11111222,11111222,11111222' 
TABS,ioos:station:wmo:42044:1,2015-07-02T17:30:00Z,26.1914,-97.0507,0.0,4.396020928,213.870942,5.39,'11111222,11111222,11111222' 
TABS,ioos:station:wmo:42044:1,2015-07-02T18:00:00Z,26.1914,-97.0507,0.0,8.955897498,207.9672606,11.62,'11111222,11111222,11111222' 
TABS,ioos:station:wmo:42044:1,2015-07-02T18:30:00Z,26.1914,-97.0507,0.0,4.586512837,165.4792254,6.25,'11111222,11111222,11111222' 
TABS,ioos:station:wmo:42044:1,2015-07-02T19:00:00Z,26.1914,-97.0507,0.0,4.493784597,161.0411509,5.44,'11111222,11111222,11111222' 
TABS,ioos:station:wmo:42044:1,2015-07-02T19:30:00Z,26.1914,-97.0507,0.0,4.472135955,169.6953881,5.45,'11111222,11111222,11111222' 
TABS,ioos:station:wmo:42044:1,2015-07-02T20:00:00Z,26.1914,-97.0507,0.0,3.113872187,132.6577092,3.65,'11111222,11111222,11111222' 
TABS,ioos:station:wmo:42044:1,2015-07-02T20:30:00Z,26.1914,-97.0507,0.0,3.858108345,145.774764,4.53,'11111222,11111222,11111222' 
TABS,ioos:station:wmo:42044:1,2015-07-02T21:00:00Z,26.1914,-97.0507,0.0,4.374117054,142.711234,5.07,'11111222,11111222,11111222' 
TABS,ioos:station:wmo:42044:1,2015-07-02T21:30:00Z,26.1914,-97.0507,0.0,3.572240193,140.3384847,4.64,'11111222,11111222,11111222' 
TABS,ioos:station:wmo:42044:1,2015-07-02T22:00:00Z,26.1914,-97.0507,0.0,3.000833218,137.4312183,3.61,'11111222,11111222,11111222' 
TABS,ioos:station:wmo:42044:1,2015-07-02T22:30:00Z,26.1914,-97.0507,0.0,2.185497655,150.3854681,2.74,'11111222,11111222,11111222' 
TABS,ioos:station:wmo:42044:1,2015-07-02T23:00:00Z,26.1914,-97.0507,0.0,2.102379604,145.8567036,2.71,'11111222,11111222,11111222' 
TABS,ioos:station:wmo:42044:1,2015-07-02T23:30:00Z,26.1914,-97.0507,0.0,2.850438563,121.5156706,3.35,'11111222,11111222,11111222' 
TABS,ioos:station:wmo:42044:1,2015-07-03T00:00:00Z,26.1914,-97.0507,0.0,2.985632261,100.0306108,3.5,'11111222,11111222,11111222' 
TABS,ioos:station:wmo:42044:1,2015-07-03T00:30:00Z,26.1914,-97.0507,0.0,2.67447191,117.1402634,3.18,'11111222,11111222,11111222' 
TABS,ioos:station:wmo:42044:1,2015-07-03T01:00:00Z,26.1914,-97.0507,0.0,2.465319452,118.3325916,3.07,'11111222,11111222,11111222' 
TABS,ioos:station:wmo:42044:1,2015-07-03T01:30:00Z,26.1914,-97.0507,0.0,3.126179777,115.991653,3.78,'11111222,11111222,11111222' 
TABS,ioos:station:wmo:42044:1,2015-07-03T02:00:00Z,26.1914,-97.0507,0.0,3.26216186,165.6232119,4.96,'11111222,11111222,11111222' 
TABS,ioos:station:wmo:42044:1,2015-07-03T02:30:00Z,26.1914,-97.0507,0.0,3.097821815,175.9277807,4.47,'11111222,11111222,11111222' 
TABS,ioos:station:wmo:42044:1,2015-07-03T03:00:00Z,26.1914,-97.0507,0.0,2.865397006,201.2817264,3.92,'11111222,11111222,11111222' 
TABS,ioos:station:wmo:42044:1,2015-07-03T03:30:00Z,26.1914,-97.0507,0.0,3.220993636,200.3480121,3.8,'11111222,11111222,11111222' 
TABS,ioos:station:wmo:42044:1,2015-07-03T04:00:00Z,26.1914,-97.0507,0.0,3.241373166,198.7146049,3.98,'11111222,11111222,11111222' 
TABS,ioos:station:wmo:42044:1,2015-07-03T04:30:00Z,26.1914,-97.0507,0.0,3.8492207,204.2346861,4.63,'11111222,11111222,11111222' 
TABS,ioos:station:wmo:42044:1,2015-07-03T05:00:00Z,26.1914,-97.0507,0.0,4.077070026,203.1064833,4.76,'11111222,11111222,11111222' 
TABS,ioos:station:wmo:42044:1,2015-07-03T05:30:00Z,26.1914,-97.0507,0.0,3.126419678,193.5030403,3.78,'11111222,11111222,11111222' 
TABS,ioos:station:wmo:42044:1,2015-07-03T06:00:00Z,26.1914,-97.0507,0.0,2.992824753,191.7606627,3.47,'11111222,11111222,11111222' 
TABS,ioos:station:wmo:42044:1,2015-07-03T06:30:00Z,26.1914,-97.0507,0.0,2.489598361,199.9636081,3.92,'11111222,11111222,11111222' 
TABS,ioos:station:wmo:42044:1,2015-07-03T07:00:00Z,26.1914,-97.0507,0.0,3.262177187,166.347385,4.25,'11111222,11111222,11111222' 
TABS,ioos:station:wmo:42044:1,2015-07-03T07:30:00Z,26.1914,-97.0507,0.0,2.442375892,152.1761791,3.97,'11111222,11111222,11111222' 
TABS,ioos:station:wmo:42044:1,2015-07-03T08:00:00Z,26.1914,-97.0507,0.0,2.058057336,145.6925028,2.75,'11111222,11111222,11111222' 
TABS,ioos:station:wmo:42044:1,2015-07-03T08:30:00Z,26.1914,-97.0507,0.0,1.854561943,132.3779204,2.34,'11111222,11111222,11111222' 
TABS,ioos:station:wmo:42044:1,2015-07-03T09:00:00Z,26.1914,-97.0507,0.0,1.31946959,154.4062411,1.8,'11111222,11111222,11111222' 
TABS,ioos:station:wmo:42044:1,2015-07-03T09:30:00Z,26.1914,-97.0507,0.0,1.25399362,122.2963218,1.78,'11111222,11111222,11111222' 
TABS,ioos:station:wmo:42044:1,2015-07-03T10:00:00Z,26.1914,-97.0507,0.0,1.767738668,108.1278395,2.24,'11111222,11111222,11111222' 
TABS,ioos:station:wmo:42044:1,2015-07-03T10:30:00Z,26.1914,-97.0507,0.0,2.059732992,121.2980476,2.53,'11111222,11111222,11111222' 
TABS,ioos:station:wmo:42044:1,2015-07-03T11:00:00Z,26.1914,-97.0507,0.0,1.908297671,123.0242112,2.28,'11111222,11111222,11111222' 
TABS,ioos:station:wmo:42044:1,2015-07-03T11:30:00Z,26.1914,-97.0507,0.0,2.38947693,118.4959929,2.91,'11111222,11111222,11111222' 
TABS,ioos:station:wmo:42044:1,2015-07-03T12:00:00Z,26.1914,-97.0507,0.0,3.189122136,135.3814341,3.84,'11111222,11111222,11111222' 
TABS,ioos:station:wmo:42044:1,2015-07-03T12:30:00Z,26.1914,-97.0507,0.0,2.324413905,119.6535108,2.88,'11111222,11111222,11111222' 
TABS,ioos:station:wmo:42044:1,2015-07-03T13:00:00Z,26.1914,-97.0507,0.0,2.575985248,116.2669979,3.23,'11111222,11111222,11111222' 
TABS,ioos:station:wmo:42044:1,2015-07-03T13:30:00Z,26.1914,-97.0507,0.0,2.839242857,128.5655916,3.32,'11111222,11111222,11111222' 
TABS,ioos:station:wmo:42044:1,2015-07-03T14:00:00Z,26.1914,-97.0507,0.0,2.761231609,120.4658946,3.28,'11111222,11111222,11111222' 
TABS,ioos:station:wmo:42044:1,2015-07-03T14:30:00Z,26.1914,-97.0507,0.0,3.129472799,125.11235,3.6,'11111222,11111222,11111222' 
TABS,ioos:station:wmo:42044:1,2015-07-03T15:00:00Z,26.1914,-97.0507,0.0,3.783556528,135.9640768,4.37,'11111222,11111222,11111222' 
TABS,ioos:station:wmo:42044:1,2015-07-03T15:30:00Z,26.1914,-97.0507,0.0,3.649068374,131.3339567,4.35,'11111222,11111222,11111222' 
TABS,ioos:station:wmo:42044:1,2015-07-03T16:00:00Z,26.1914,-97.0507,0.0,3.600736036,136.6883039,4.25,'11111222,11111222,11111222' 
TABS,ioos:station:wmo:42044:1,2015-07-03T16:30:00Z,26.1914,-97.0507,0.0,3.429533496,135.3547172,3.86,'11111222,11111222,11111222' 
TABS,ioos:station:wmo:42044:1,2015-07-03T17:00:00Z,26.1914,-97.0507,0.0,3.134788669,137.1979416,3.68,'11111222,11111222,11111222' 
TABS,ioos:station:wmo:42044:1,2015-07-03T17:30:00Z,26.1914,-97.0507,0.0,2.830017668,126.6677751,3.41,'11111222,11111222,11111222' 
TABS,ioos:station:wmo:42044:1,2015-07-03T18:00:00Z,26.1914,-97.0507,0.0,2.923354238,124.1252829,3.41,'11111222,11111222,11111222' 
TABS,ioos:station:wmo:42044:1,2015-07-03T18:30:00Z,26.1914,-97.0507,0.0,2.61335034,125.0282813,3.14,'11111222,11111222,11111222' 
TABS,ioos:station:wmo:42044:1,2015-07-03T19:00:00Z,26.1914,-97.0507,0.0,3.356724594,131.8606629,3.96,'11111222,11111222,11111222' 
TABS,ioos:station:wmo:42044:1,2015-07-03T19:30:00Z,26.1914,-97.0507,0.0,3.823205461,128.3090669,4.56,'11111222,11111222,11111222' 
TABS,ioos:station:wmo:42044:1,2015-07-03T20:00:00Z,26.1914,-97.0507,0.0,3.656241239,126.2120509,4.43,'11111222,11111222,11111222' 
TABS,ioos:station:wmo:42044:1,2015-07-03T20:30:00Z,26.1914,-97.0507,0.0,3.188134251,131.4398435,3.75,'11111222,11111222,11111222' 
TABS,ioos:station:wmo:42044:1,2015-07-03T21:00:00Z,26.1914,-97.0507,0.0,3.479683894,133.8359304,4.07,'11111222,11111222,11111222' 
TABS,ioos:station:wmo:42044:1,2015-07-03T21:30:00Z,26.1914,-97.0507,0.0,3.231253627,141.5343389,3.67,'11111222,11111222,11111222' 
TABS,ioos:station:wmo:42044:1,2015-07-03T22:00:00Z,26.1914,-97.0507,0.0,3.71436401,140.3527345,4.28,'11111222,11111222,11111222' 
TABS,ioos:station:wmo:42044:1,2015-07-03T22:30:00Z,26.1914,-97.0507,0.0,3.253997541,124.8625355,4.08,'11111222,11111222,11111222' 
TABS,ioos:station:wmo:42044:1,2015-07-03T23:00:00Z,26.1914,-97.0507,0.0,3.464592328,145.346975,4.02,'11111222,11111222,11111222' 
TABS,ioos:station:wmo:42044:1,2015-07-03T23:30:00Z,26.1914,-97.0507,0.0,3.57229618,142.39259,4.12,'11111222,11111222,11111222' 
TABS,ioos:station:wmo:42044:1,2015-07-04T00:00:00Z,26.1914,-97.0507,0.0,4.279077003,144.4159201,4.93,'11111222,11111222,11111222' 
TABS,ioos:station:wmo:42044:1,2015-07-04T00:30:00Z,26.1914,-97.0507,0.0,4.373602634,148.2726297,5.05,'11111222,11111222,11111222' 
TABS,ioos:station:wmo:42044:1,2015-07-04T01:00:00Z,26.1914,-97.0507,0.0,4.441846463,148.8153087,5.02,'11111222,11111222,11111222' 
TABS,ioos:station:wmo:42044:1,2015-07-04T01:30:00Z,26.1914,-97.0507,0.0,4.498410831,149.102057,5.4,'11111222,11111222,11111222' 
TABS,ioos:station:wmo:42044:1,2015-07-04T02:00:00Z,26.1914,-97.0507,0.0,4.978644394,154.6705156,5.7,'11111222,11111222,11111222' 
TABS,ioos:station:wmo:42044:1,2015-07-04T02:30:00Z,26.1914,-97.0507,0.0,4.66451498,153.105624,5.47,'11111222,11111222,11111222' 
TABS,ioos:station:wmo:42044:1,2015-07-04T03:00:00Z,26.1914,-97.0507,0.0,5.059535552,154.8533916,5.94,'11111222,11111222,11111222' 
TABS,ioos:station:wmo:42044:1,2015-07-04T03:30:00Z,26.1914,-97.0507,0.0,4.369279117,153.4938658,5.08,'11111222,11111222,11111222' 
TABS,ioos:station:wmo:42044:1,2015-07-04T04:00:00Z,26.1914,-97.0507,0.0,4.146142786,152.5699808,4.77,'11111222,11111222,11111222' 
TABS,ioos:station:wmo:42044:1,2015-07-04T04:30:00Z,26.1914,-97.0507,0.0,4.418506535,153.6671863,5.24,'11111222,11111222,11111222' 
TABS,ioos:station:wmo:42044:1,2015-07-04T05:00:00Z,26.1914,-97.0507,0.0,4.692483351,149.6647429,5.6,'11111222,11111222,11111222' 
TABS,ioos:station:wmo:42044:1,2015-07-04T05:30:00Z,26.1914,-97.0507,0.0,4.767651413,146.3768833,5.73,'11111222,11111222,11111222' 
TABS,ioos:station:wmo:42044:1,2015-07-04T06:00:00Z,26.1914,-97.0507,0.0,4.939605247,146.3102217,5.65,'11111222,11111222,11111222' 
TABS,ioos:station:wmo:42044:1,2015-07-04T06:30:00Z,26.1914,-97.0507,0.0,4.906179777,154.0097255,5.74,'11111222,11111222,11111222' 
TABS,ioos:station:wmo:42044:1,2015-07-04T07:00:00Z,26.1914,-97.0507,0.0,5.485918337,158.9552502,6.4,'11111222,11111222,11111222' 
TABS,ioos:station:wmo:42044:1,2015-07-04T07:30:00Z,26.1914,-97.0507,0.0,5.884895921,159.7176988,6.95,'11111222,11111222,11111222' 
TABS,ioos:station:wmo:42044:1,2015-07-04T08:00:00Z,26.1914,-97.0507,0.0,5.081781184,161.529651,5.94,'11111222,11111222,11111222' 
TABS,ioos:station:wmo:42044:1,2015-07-04T08:30:00Z,26.1914,-97.0507,0.0,5.774582236,182.2828839,6.9,'11111222,11111222,11111222' 
TABS,ioos:station:wmo:42044:1,2015-07-04T09:00:00Z,26.1914,-97.0507,0.0,4.425708983,170.899728,5.13,'11111222,11111222,11111222' 
TABS,ioos:station:wmo:42044:1,2015-07-04T09:30:00Z,26.1914,-97.0507,0.0,2.895047495,172.4578977,3.37,'11111222,11111222,11111222' 
TABS,ioos:station:wmo:42044:1,2015-07-04T10:00:00Z,26.1914,-97.0507,0.0,2.711180555,178.3093171,3.24,'11111222,11111222,11111222' 
TABS,ioos:station:wmo:42044:1,2015-07-04T10:30:00Z,26.1914,-97.0507,0.0,3.454880606,163.348659,4.11,'11111222,11111222,11111222' 
TABS,ioos:station:wmo:42044:1,2015-07-04T11:00:00Z,26.1914,-97.0507,0.0,3.365739146,169.5583539,3.98,'11111222,11111222,11111222' 
TABS,ioos:station:wmo:42044:1,2015-07-04T11:30:00Z,26.1914,-97.0507,0.0,2.700666584,178.7271834,3.26,'11111222,11111222,11111222' 
TABS,ioos:station:wmo:42044:1,2015-07-04T12:00:00Z,26.1914,-97.0507,0.0,2.816025568,163.4958877,3.48,'11111222,11111222,11111222' 
TABS,ioos:station:wmo:42044:1,2015-07-04T12:30:00Z,26.1914,-97.0507,0.0,2.839383736,132.0025341,3.75,'11111222,11111222,11111222' 
TABS,ioos:station:wmo:42044:1,2015-07-04T13:00:00Z,26.1914,-97.0507,0.0,3.527846369,148.5630194,4.47,'11111222,11111222,11111222' 
TABS,ioos:station:wmo:42044:1,2015-07-04T13:30:00Z,26.1914,-97.0507,0.0,3.637925233,148.1451526,4.59,'11111222,11111222,11111222' 
TABS,ioos:station:wmo:42044:1,2015-07-04T14:00:00Z,26.1914,-97.0507,0.0,3.831579309,144.7755136,4.5,'11111222,11111222,11111222' 
TABS,ioos:station:wmo:42044:1,2015-07-04T14:30:00Z,26.1914,-97.0507,0.0,3.734193353,143.7134626,4.34,'11111222,11111222,11111222' 
TABS,ioos:station:wmo:42044:1,2015-07-04T15:00:00Z,26.1914,-97.0507,0.0,3.860051813,143.427265,4.67,'11111222,11111222,11111222' 
TABS,ioos:station:wmo:42044:1,2015-07-04T15:30:00Z,26.1914,-97.0507,0.0,3.68089663,145.4035841,4.25,'11111222,11111222,11111222' 
TABS,ioos:station:wmo:42044:1,2015-07-04T16:00:00Z,26.1914,-97.0507,0.0,3.82800209,149.5499144,4.53,'11111222,11111222,11111222' 
TABS,ioos:station:wmo:42044:1,2015-07-04T16:30:00Z,26.1914,-97.0507,0.0,4.080196074,142.568695,4.74,'11111222,11111222,11111222' 
TABS,ioos:station:wmo:42044:1,2015-07-04T17:00:00Z,26.1914,-97.0507,0.0,3.818717062,142.020041,4.44,'11111222,11111222,11111222' 
TABS,ioos:station:wmo:42044:1,2015-07-04T17:30:00Z,26.1914,-97.0507,0.0,4.176038793,142.8834366,5.14,'11111222,11111222,11111222' 
TABS,ioos:station:wmo:42044:1,2015-07-04T18:00:00Z,26.1914,-97.0507,0.0,4.622131543,140.1788611,5.45,'11111222,11111222,11111222' 
TABS,ioos:station:wmo:42044:1,2015-07-04T18:30:00Z,26.1914,-97.0507,0.0,5.513220474,141.9247905,6.43,'11111222,11111222,11111222' 